Location: Hradec Kralove
(50.2170°N, 15.8330°E)
Time: 09:34:16
(UTC+01:00)

X-37B - Pass Details

Date: 14 December 2022
Orbit: 277 x 277 km, 45.0° (Epoch: 01 November)

Event Time Altitude Azimuth Distance (km) Brightness Sun altitude
Rises 17:01:05 0° 250° (WSW) 1,913 6.4 -10.1°
Reaches altitude 10° 17:03:11 10° 235° (SW) 1,101 4.4 -10.4°
Maximum altitude 17:05:14 24° 178° (S) 640 1.9 -10.7°
Drops below altitude 10° 17:07:18 10° 121° (ESE) 1,101 2.5 -11.0°
Enters shadow 17:07:19 10° 120° (ESE) 1,108 2.5 -11.0°
